Weather in Verkhny Kuzhebar

Russia / Krasnoyarsk Krai     53°22′16″N   93°14′05″E
temp.,
°C
wind,
m/s
gust,
m/s
humid.,
%
clouds,
%
prec.,
mm/h
press.,
hPa
HPBL,
m
10 may, mon
mon1001:00+3wsw119390 0.8 101916
04:00+2wsw11955 0.4 102015
07:00+3w239038 0.5 1022248
10:00+7wnw3471100 0.3 10221243
13:00+8wnw2368100 0.8 10221274
16:00+10nw125855 0.4 10211313
19:00+9sse237069 0.4 1021141
22:00+3se11865 0.0 102212
11 may, tue
tue1101:00+1ese21890 0.0 102017
04:000e22890 0.0 101943
07:00+5e25690 0.0 1017201
10:00+14e34410 0.0 1014995
13:00+18e242887 0.0 10122431
16:00+18ne2326100 0.0 10112778
19:00+14ne2654100 0.0 1012149
22:00+8sse1172100 0.0 101310
12 may, wed
wed1201:00+6se0075100 0.0 101410
04:00+5sse0177100 0.0 101410
07:00+7sse0071100 0.0 101491
10:00+12w2355100 0.0 1014893
13:00+16wnw3347100 0.0 10131632
16:00+17wnw3439100 0.1 10112134
19:00+14nw375573 0.2 1013496
22:00+7wsw227452 0.1 101645
13 may, thu
thu1301:00+4wsw22840 0.1 101743
04:00+3ssw12911 0.0 101920
07:00+6w14705 0.0 1020316
10:00+11wnw23442 0.0 10191293
13:00+15nw22330 0.0 10171730
16:00+16nw22300 0.0 10161867
19:00+13wnw23461 0.0 1016110
22:00+6sse21610 0.0 101714
14 may, fri
fri1401:00+4se116912 0.0 101710
04:00+3se117040 0.0 101711
07:00+7e1257100 0.0 1015106
10:00+15nnw1137100 0.0 1012519
13:00+18wnw473595 0.0 10102406
16:00+15wnw71254100 0.2 10102108
19:00+8ssw1494100 6.9 1014286
22:00+8nw71088100 4.1 10171123